TimeCDT,TemperatureF,Dew PointF,Humidity,Sea Level PressureIn,VisibilityMPH,Wind Direction,Wind SpeedMPH,Gust SpeedMPH,PrecipitationIn,Events,Conditions,WindDirDegrees,DateUTC
12:53 AM,69.1,64.0,84,29.96,10.0,ESE,5.8,-,N/A,,Clear,120,2013-06-19 05:53:00
1:53 AM,69.1,64.9,87,29.95,10.0,SE,8.1,-,N/A,,Clear,140,2013-06-19 06:53:00
2:53 AM,70.0,64.9,84,29.94,10.0,SSE,6.9,-,N/A,,Clear,150,2013-06-19 07:53:00
3:53 AM,70.0,66.0,87,29.94,10.0,SSE,9.2,-,N/A,,Clear,150,2013-06-19 08:53:00
4:53 AM,69.1,66.0,90,29.96,10.0,South,4.6,-,N/A,,Clear,170,2013-06-19 09:53:00
5:53 AM,69.1,66.9,93,29.93,10.0,SE,6.9,-,N/A,,Clear,130,2013-06-19 10:53:00
6:53 AM,69.1,66.9,93,29.95,10.0,South,6.9,-,N/A,,Partly Cloudy,170,2013-06-19 11:53:00
7:53 AM,71.1,68.0,90,30.02,10.0,North,5.8,-,N/A,,Clear,360,2013-06-19 12:53:00
8:53 AM,73.9,68.0,82,30.03,10.0,NNE,5.8,-,N/A,,Partly Cloudy,30,2013-06-19 13:53:00
9:53 AM,72.0,68.0,87,30.02,9.0,North,4.6,-,0.00,Rain,Light Rain,360,2013-06-19 14:53:00
10:53 AM,71.1,68.0,90,29.91,10.0,SW,24.2,-,0.03,Rain,Light Rain,220,2013-06-19 15:53:00
11:53 AM,71.1,68.0,90,29.90,9.0,SW,32.2,40.3,0.01,,Scattered Clouds,230,2013-06-19 16:53:00
12:53 PM,72.0,61.0,68,29.84,10.0,SW,38.0,46.0,0.00,,Mostly Cloudy,230,2013-06-19 17:53:00
1:53 PM,73.9,59.0,59,29.91,10.0,Variable,5.8,19.6,N/A,,Clear,0,2013-06-19 18:53:00
2:53 PM,79.0,60.1,52,29.88,10.0,SE,5.8,-,N/A,,Clear,140,2013-06-19 19:53:00
3:43 PM,84.2,59.0,42,29.91,10.0,ENE,12.7,-,N/A,,Clear,70,2013-06-19 20:43:00
3:53 PM,86.0,61.0,43,29.86,10.0,NNE,10.4,-,N/A,,Clear,30,2013-06-19 20:53:00
4:53 PM,87.1,63.0,44,29.86,10.0,NE,10.4,16.1,N/A,,Clear,40,2013-06-19 21:53:00
5:53 PM,86.0,61.0,43,29.85,10.0,SE,10.4,19.6,N/A,,Clear,130,2013-06-19 22:53:00
6:53 PM,86.0,55.9,36,29.85,10.0,SE,10.4,-,N/A,,Clear,130,2013-06-19 23:53:00
7:53 PM,82.0,61.0,49,29.87,10.0,SSE,11.5,-,N/A,,Clear,160,2013-06-20 00:53:00
8:53 PM,78.1,62.1,58,29.87,10.0,South,6.9,-,N/A,,Mostly Cloudy,170,2013-06-20 01:53:00
9:53 PM,75.9,64.0,67,29.87,10.0,SE,10.4,-,N/A,,Clear,140,2013-06-20 02:53:00
10:53 PM,75.9,70.0,82,29.91,10.0,SSE,10.4,-,N/A,,Mostly Cloudy,150,2013-06-20 03:53:00
11:53 PM,75.9,70.0,82,29.88,10.0,SSE,17.3,-,N/A,,Clear,150,2013-06-20 04:53:00